Location: Peterborough
(44.3091°N, 78.3197°W)
Time: 04:31:28
(UTC-04:00)

S-56A Canister/Altair - Pass Details

Date: 26 March 2023
Orbit: 639 x 2492 km, 38.9° (Epoch: 08 June)

Event Time Altitude Azimuth Distance (km) Brightness Sun altitude
Rises 17:16:26 0° 185° (S) 4,428 11.8 23.1°
Reaches altitude 10° 17:20:20 10° 168° (SSE) 3,778 11.2 22.5°
Maximum altitude 17:26:43 19° 128° (SE) 3,597 10.7 21.4°
Drops below altitude 10° 17:34:24 10° 91° (E) 4,723 11.1 20.1°
Sets 17:40:07 0° 77° (ENE) 5,976 11.5 19.1°
